カタログに戻る

DELTA 1 DEB

運用中SSO
NORAD 19512·DEBRIS·🇺🇸 United States

打ち上げ Nov 6, 1973 から Vandenberg Space Force Base

Loading…

次のパス (今後24時間)

TLE

最新Source: Space-Track

元期: Sep 13, 2026, 12:24 UTC

1 19512U 73086HF  26256.51730682 -.00000027  00000-0  15243-3 0  9993
2 19512 102.4085 267.6320 0029203 300.9537 212.8322 12.35229037728370

AllMySatでDELTA 1 DEBをリアルタイム追跡

Download on the App Store